GW1618 Weather Reports


Display with metric or nautical units.
time (UTC)temp
F
wind
direction
speed
MPH
gust
MPH
rain 1hr
in
rain 24hr
in
rain mn
in
humidity
%
barometer
mb
20260904222129 63 180 3.0 6.0 0.00 0.00 0.00 69 1012.9
20260904221929 62 194 3.0 6.0 0.00 0.00 0.00 69 1012.9
20260904221130 62 212 3.0 5.0 0.00 0.00 0.00 73 1012.9
20260904220634 62 211 4.0 6.0 0.00 0.00 0.00 73 1012.9
20260904220134 62 221 4.0 7.0 0.00 0.00 0.00 74 1012.9
20260904215618 62 197 4.0 8.0 0.00 0.00 0.00 73 1012.9
20260904215106 62 213 5.0 11.0 0.00 0.00 0.00 71 1012.9
20260904214911 63 175 6.0 11.0 0.00 0.00 0.00 67 1012.9
20260904214103 64 204 6.0 13.0 0.00 0.00 0.00 63 1012.8
20260904213603 65 134 4.0 13.0 0.00 0.00 0.00 60 1012.8
20260904213103 65 221 1.0 5.0 0.00 0.00 0.00 57 1012.8
20260904212602 65 341 1.0 2.0 0.00 0.00 0.00 55 1012.6
20260904212112 64 315 2.0 3.0 0.00 0.00 0.00 58 1012.6
20260904211605 64 327 3.0 4.0 0.00 0.00 0.00 60 1012.6
20260904211102 64 350 4.0 6.0 0.00 0.00 0.00 61 1012.5
20260904210605 64 9 6.0 8.0 0.00 0.00 0.00 63 1012.5
20260904205601 64 359 5.0 7.0 0.00 0.00 0.00 64 1012.6
20260904205102 64 17 6.0 9.0 0.00 0.00 0.00 64 1012.6
20260904204601 64 23 6.0 9.0 0.00 0.00 0.00 65 1012.6
20260904204101 64 21 6.0 11.0 0.00 0.00 0.00 65 1012.8
20260904203850 63 4 8.0 11.0 0.00 0.00 0.00 67 1012.8
20260904203103 62 359 8.0 11.0 0.00 0.00 0.00 68 1012.8
20260904202606 62 26 8.0 11.0 0.00 0.00 0.00 71 1012.7
20260904202058 62 14 9.0 12.0 0.00 0.00 0.00 71 1012.7
20260904201548 62 4 10.0 12.0 0.00 0.00 0.00 71 1012.7
20260904201037 62 9 10.0 12.0 0.00 0.00 0.00 71 1012.7
20260904200535 62 18 9.0 12.0 0.00 0.00 0.00 68 1012.7
20260904200030 62 4 9.0 12.0 0.00 0.00 0.00 71 1012.7
20260904195530 62 4 9.0 12.0 0.00 0.00 0.00 70 1012.4
20260904195325 62 359 7.0 12.0 0.00 0.00 0.00 70 1012.4
20260904194529 63 9 5.0 9.0 0.00 0.00 0.00 68 1012.4
20260904194029 62 20 4.0 6.0 0.00 0.00 0.00 70 1012.6
20260904193530 62 346 6.0 9.0 0.00 0.00 0.00 71 1012.6
20260904193029 62 4 5.0 9.0 0.00 0.00 0.00 70 1012.6
20260904192534 62 342 4.0 6.0 0.00 0.00 0.00 71 1012.8
20260904192020 62 359 3.0 5.0 0.00 0.00 0.00 71 1012.8
20260904191514 62 21 3.0 4.0 0.00 0.00 0.00 72 1012.8
20260904191015 61 359 3.0 5.0 0.00 0.00 0.00 73 1012.8
20260904190806 61 342 4.0 5.0 0.00 0.00 0.00 75 1012.8
20260904190018 60 359 4.0 6.0 0.00 0.00 0.00 76 1012.8
20260904185516 60 359 4.0 6.0 0.00 0.00 0.00 77 1012.9
20260904185014 60 354 4.0 7.0 0.00 0.00 0.00 77 1012.9
20260904184517 60 359 4.0 7.0 0.00 0.00 0.00 78 1012.9
20260904184011 59 359 4.0 6.0 0.00 0.00 0.00 78 1012.9
20260904183514 59 9 4.0 6.0 0.00 0.00 0.00 79 1012.9
20260904183010 59 350 5.0 8.0 0.00 0.00 0.00 80 1012.9
20260904182801 58 341 6.0 10.0 0.00 0.00 0.00 81 1012.9
20260904182010 58 32 7.0 11.0 0.00 0.00 0.00 83 1012.9
20260904181510 58 19 8.0 11.0 0.00 0.00 0.00 83 1012.9
20260904181009 58 13 7.0 12.0 0.00 0.00 0.00 84 1012.9
20260904180511 58 9 6.0 12.0 0.00 0.00 0.00 84 1012.9
20260904180008 58 4 6.0 10.0 0.00 0.00 0.00 84 1012.9
20260904175803 57 16 6.0 10.0 0.00 0.00 0.00 85 1012.9
20260904175008 57 359 5.0 8.0 0.00 0.00 0.00 85 1012.9
20260904174508 57 351 5.0 9.0 0.00 0.00 0.00 85 1012.9
20260904174010 57 9 6.0 11.0 0.00 0.00 0.00 86 1012.9
20260904173809 56 359 8.0 11.0 0.00 0.00 0.00 86 1012.9
20260904173011 56 17 8.0 11.0 0.00 0.00 0.00 86 1012.9
20260904172507 57 21 8.0 11.0 0.00 0.00 0.00 85 1012.8
20260904172006 57 14 8.0 12.0 0.00 0.00 0.00 86 1012.8
20260904171503 57 14 8.0 12.0 0.00 0.00 0.00 85 1012.8
20260904170958 57 359 6.0 11.0 0.00 0.00 0.00 86 1012.8
20260904170456 57 14 5.0 7.0 0.00 0.00 0.00 86 1012.8
20260904165957 57 18 5.0 7.0 0.00 0.00 0.00 86 1012.8
20260904165453 56 18 5.0 7.0 0.00 0.00 0.00 87 1012.8
20260904164955 56 4 5.0 7.0 0.00 0.00 0.00 87 1012.8
20260904164856 56 355 5.0 7.0 0.00 0.00 0.00 87 1012.8
20260904163446 56 9 4.0 6.0 0.00 0.00 0.00 87 1012.7
20260904162944 56 19 4.0 6.0 0.00 0.00 0.00 87 1012.7
20260904162742 56 17 3.0 5.0 0.00 0.00 0.00 87 1012.7
20260904161938 56 359 2.0 3.0 0.00 0.00 0.00 87 1012.7
20260904161435 56 9 2.0 3.0 0.00 0.00 0.00 87 1012.7
20260904160932 56 354 2.0 3.0 0.00 0.00 0.00 87 1012.6
20260904160431 56 298 2.0 3.0 0.00 0.00 0.00 88 1012.6
20260904155934 56 281 1.0 3.0 0.00 0.00 0.00 88 1012.6
20260904155415 56 243 1.0 4.0 0.00 0.00 0.00 88 1012.4
20260904155221 56 292 1.0 4.0 0.00 0.00 0.00 88 1012.4
20260904154415 56 342 0.0 1.0 0.00 0.00 0.00 89 1012.4
20260904153913 55 331 1.0 2.0 0.00 0.00 0.00 89 1012.3
20260904153405 55 331 2.0 4.0 0.00 0.00 0.00 89 1012.3
20260904152904 55 335 2.0 4.0 0.00 0.01 0.00 89 1012.3
20260904152656 55 346 2.0 3.0 0.00 0.01 0.00 89 1012.3
20260904151901 55 344 2.0 3.0 0.00 0.01 0.00 89 1012.3
20260904151401 55 9 1.0 2.0 0.00 0.01 0.00 89 1012.3
20260904150902 55 19 1.0 3.0 0.00 0.01 0.00 89 1012.0
20260904150700 55 26 2.0 4.0 0.00 0.01 0.00 89 1012.0
20260904145845 55 32 2.0 5.0 0.00 0.01 0.00 89 1012.0
20260904145347 55 359 2.0 5.0 0.00 0.01 0.00 89 1011.9
20260904144838 54 13 2.0 4.0 0.00 0.01 0.00 89 1011.9
20260904144334 54 331 2.0 3.0 0.00 0.01 0.00 89 1011.9
20260904143826 55 304 3.0 5.0 0.00 0.01 0.00 89 1011.8
20260904143321 55 321 3.0 7.0 0.00 0.01 0.00 89 1011.8
20260904142814 55 335 4.0 7.0 0.00 0.01 0.00 89 1011.8
20260904142306 54 333 3.0 5.0 0.00 0.01 0.00 89 1011.8
20260904141805 54 4 3.0 5.0 0.00 0.01 0.00 89 1011.8
20260904141305 54 342 3.0 5.0 0.00 0.01 0.00 89 1011.8
20260904140803 54 339 3.0 6.0 0.00 0.02 0.00 89 1011.4
20260904140310 54 359 3.0 6.0 0.00 0.02 0.00 89 1011.4
20260904135306 54 9 2.0 4.0 0.00 0.02 0.00 89 1011.1
20260904134826 54 17 2.0 4.0 0.00 0.02 0.00 89 1011.1
20260904133816 54 348 2.0 3.0 0.00 0.02 0.00 89 1011.1
20260904132749 54 344 1.0 4.0 0.00 0.02 0.00 89 1011.1
20260904132246 54 335 0.0 2.0 0.00 0.02 0.00 88 1010.9
20260904131731 54 335 1.0 2.0 0.00 0.02 0.00 88 1010.9
20260904131230 54 335 1.0 2.0 0.00 0.02 0.00 88 1010.9
20260904130732 54 334 1.0 2.0 0.00 0.02 0.00 88 1010.9
20260904130232 54 306 1.0 2.0 0.00 0.03 0.00 88 1010.9
20260904130023 54 254 1.0 3.0 0.00 0.03 0.00 88 1010.9
20260904125222 54 237 1.0 3.0 0.00 0.03 0.00 88 1011.0
20260904124725 54 244 1.0 3.0 0.00 0.03 0.00 88 1011.0
20260904124210 54 331 1.0 2.0 0.00 0.03 0.00 88 1011.0
20260904123658 54 331 1.0 2.0 0.00 0.03 0.00 88 1010.8
20260904123157 54 347 2.0 4.0 0.00 0.03 0.00 88 1010.8
20260904122658 54 351 2.0 4.0 0.00 0.03 0.00 88 1010.8
20260904122159 54 339 2.0 3.0 0.00 0.03 0.00 88 1010.8
20260904121641 54 345 2.0 3.0 0.00 0.03 0.00 88 1010.8
20260904121435 54 339 2.0 3.0 0.00 0.03 0.00 88 1010.8
20260904120631 54 332 1.0 2.0 0.00 0.03 0.00 88 1010.8
20260904120131 54 323 0.0 1.0 0.00 0.03 0.00 88 1010.8
20260904115631 54 323 1.0 2.0 0.00 0.04 0.00 88 1010.8
20260904115134 54 343 1.0 2.0 0.00 0.04 0.00 88 1010.8
20260904114631 54 354 1.0 2.0 0.00 0.04 0.00 88 1010.8
20260904114146 54 354 1.0 3.0 0.00 0.04 0.00 88 1010.7
20260904113633 54 359 1.0 2.0 0.00 0.05 0.00 88 1010.7
20260904113121 54 333 1.0 2.0 0.00 0.05 0.00 88 1010.7
20260904112917 55 319 1.0 2.0 0.00 0.05 0.00 88 1010.4
20260904112150 55 337 1.0 2.0 0.00 0.05 0.00 88 1010.4
20260904111358 55 334 1.0 3.0 0.00 0.05 0.00 88 1010.3
20260904110613 55 323 2.0 3.0 0.00 0.06 0.00 88 1010.3
20260904110108 55 336 1.0 3.0 0.00 0.06 0.00 88 1010.3
20260904105609 55 19 1.0 2.0 0.00 0.06 0.00 88 1010.3
20260904105043 55 19 1.0 2.0 0.00 0.06 0.00 88 1010.3
20260904104533 55 19 1.0 2.0 0.00 0.06 0.00 87 1010.3
20260904104325 55 19 1.0 2.0 0.00 0.06 0.00 87 1010.2
20260904103511 55 19 1.0 2.0 0.00 0.06 0.00 87 1010.2
20260904103045 55 319 1.0 2.0 0.00 0.06 0.00 87 1010.2
20260904102310 55 319 1.0 2.0 0.00 0.06 0.00 87 1010.2
20260904101515 55 319 1.0 2.0 0.00 0.06 0.00 87 1010.2
20260904101017 55 319 0.0 2.0 0.00 0.06 0.00 86 1010.0
20260904100502 55 319 0.0 1.0 0.00 0.06 0.00 86 1010.0
20260904100005 55 319 0.0 1.0 0.00 0.06 0.00 86 1010.0
20260904095509 55 319 0.0 0.0 0.00 0.06 0.00 85 1009.9
20260904095222 55 319 0.0 1.0 0.00 0.06 0.00 85 1009.9
20260904094444 55 319 0.0 1.0 0.00 0.06 0.00 85 1009.9
20260904093913 55 319 0.0 1.0 0.00 0.06 0.00 85 1010.0
20260904093420 55 319 0.0 1.0 0.00 0.06 0.00 85 1010.0
20260904092905 55 319 1.0 2.0 0.00 0.06 0.00 85 1010.0
20260904092646 55 319 1.0 2.0 0.00 0.06 0.00 85 1010.1
20260904091851 55 321 1.0 3.0 0.00 0.06 0.00 84 1010.1
20260904091352 55 314 2.0 3.0 0.00 0.06 0.00 84 1010.1
20260904091118 55 323 2.0 3.0 0.00 0.06 0.00 84 1010.1
20260904090339 55 303 2.0 5.0 0.00 0.06 0.00 83 1010.1
20260904085829 56 294 3.0 5.0 0.00 0.06 0.00 83 1010.1
20260904085330 56 285 2.0 4.0 0.00 0.06 0.00 82 1010.2
20260904084829 56 296 1.0 3.0 0.00 0.06 0.00 83 1010.2
20260904084333 56 323 1.0 2.0 0.00 0.06 0.00 83 1010.2
20260904084058 56 321 1.0 2.0 0.00 0.06 0.00 83 1010.2
20260904083330 56 331 2.0 3.0 0.00 0.06 0.00 84 1010.2
20260904083114 56 359 2.0 3.0 0.00 0.06 0.00 84 1010.2
20260904082331 56 333 2.0 3.0 0.00 0.06 0.00 84 1010.2
20260904081836 56 331 2.0 3.0 0.00 0.06 0.00 84 1010.2
20260904081333 56 351 2.0 3.0 0.00 0.06 0.00 84 1010.2
20260904080819 56 350 2.0 3.0 0.00 0.06 0.00 84 1010.2
20260904080323 56 19 2.0 3.0 0.00 0.06 0.00 84 1010.2
20260904075815 56 359 2.0 3.0 0.00 0.06 0.00 84 1010.2
20260904075311 56 18 2.0 4.0 0.00 0.06 0.00 84 1010.2
20260904074806 56 21 2.0 4.0 0.00 0.07 0.00 84 1010.2
20260904074305 56 4 2.0 3.0 0.00 0.07 0.00 84 1010.2
20260904073802 56 9 2.0 3.0 0.00 0.07 0.00 84 1010.0
20260904073302 56 359 2.0 4.0 0.00 0.07 0.00 84 1010.0
20260904072805 56 359 2.0 4.0 0.00 0.07 0.00 84 1010.0
20260904072313 56 355 2.0 4.0 0.00 0.07 0.00 84 1009.9
20260904071808 56 9 2.0 3.0 0.00 0.07 0.00 84 1009.9
20260904071258 56 16 2.0 3.0 0.00 0.07 0.00 84 1009.9
20260904070752 56 26 2.0 3.0 0.00 0.07 0.00 84 1009.8
20260904070245 56 18 1.0 3.0 0.00 0.07 0.00 83 1009.8
20260904070023 56 350 1.0 3.0 0.00 0.07 0.07 83 1009.8
20260904065233 56 250 1.0 2.0 0.00 0.07 0.07 83 1009.8
20260904065020 56 250 1.0 2.0 0.00 0.07 0.07 83 1009.8
20260904064231 56 9 0.0 1.0 0.00 0.07 0.07 83 1009.8
20260904063729 56 9 1.0 2.0 0.00 0.07 0.07 83 1009.8
20260904063235 56 9 1.0 3.0 0.00 0.07 0.07 83 1009.8
20260904062729 56 9 2.0 3.0 0.00 0.07 0.07 83 1009.8
20260904062230 56 9 2.0 3.0 0.00 0.07 0.07 83 1009.8
20260904061731 56 4 2.0 3.0 0.00 0.07 0.07 83 1009.8
20260904061525 56 23 1.0 3.0 0.00 0.07 0.07 82 1009.8
20260904060729 56 75 0.0 2.0 0.00 0.07 0.07 82 1009.8
20260904060512 56 152 0.0 1.0 0.00 0.07 0.07 81 1009.8
20260904055737 56 152 1.0 2.0 0.00 0.07 0.07 80 1009.8
20260904055230 56 152 2.0 4.0 0.00 0.07 0.07 80 1009.9
20260904054732 56 153 2.0 4.0 0.00 0.07 0.07 80 1009.9
20260904054233 56 171 1.0 3.0 0.00 0.07 0.07 81 1009.9
20260904053734 56 359 1.0 2.0 0.00 0.07 0.07 82 1009.8
20260904053224 56 359 1.0 2.0 0.00 0.07 0.07 82 1009.8
20260904052712 56 337 0.0 2.0 0.00 0.07 0.07 82 1009.8
20260904052205 56 282 0.0 2.0 0.00 0.07 0.07 82 1009.8
20260904051958 56 271 0.0 0.0 0.00 0.07 0.07 81 1009.8
20260904051451 56 271 0.0 1.0 0.00 0.07 0.07 81 1009.8
20260904051001 57 271 0.0 1.0 0.00 0.07 0.07 80 1009.8
20260904050204 57 271 0.0 1.0 0.00 0.07 0.07 80 1009.8
20260904045949 57 271 0.0 1.0 0.00 0.07 0.07 79 1009.8
20260904045153 57 271 0.0 1.0 0.00 0.07 0.07 79 1009.7
20260904044641 57 271 0.0 1.0 0.00 0.07 0.07 78 1009.7
20260904044136 57 271 1.0 3.0 0.00 0.07 0.07 78 1009.7
20260904043631 57 271 1.0 3.0 0.00 0.07 0.07 77 1009.7
20260904043428 57 217 2.0 4.0 0.00 0.07 0.07 76 1009.7
20260904042628 57 177 3.0 5.0 0.00 0.07 0.07 77 1009.7
20260904042127 57 159 3.0 5.0 0.00 0.07 0.07 77 1009.7
20260904041731 57 147 2.0 5.0 0.00 0.07 0.07 79 1009.7
20260904040622 57 248 1.0 3.0 0.00 0.07 0.07 77 1009.7
20260904040418 57 212 1.0 3.0 0.00 0.07 0.07 76 1009.7
20260904035607 58 238 1.0 3.0 0.00 0.07 0.07 75 1009.5
20260904035102 58 248 1.0 2.0 0.00 0.07 0.07 76 1009.5
20260904034601 58 252 1.0 2.0 0.00 0.07 0.07 75 1009.5
20260904034354 58 211 1.0 3.0 0.00 0.07 0.07 74 1009.3
20260904033602 58 186 1.0 3.0 0.00 0.07 0.07 73 1009.3
20260904033353 58 161 1.0 2.0 0.00 0.07 0.07 72 1009.3
20260904032554 58 267 1.0 3.0 0.00 0.07 0.07 71 1009.2
20260904032049 59 265 2.0 3.0 0.00 0.07 0.07 71 1009.2
20260904031846 59 218 2.0 4.0 0.00 0.07 0.07 69 1009.2
20260904031049 59 213 2.0 5.0 0.00 0.07 0.07 69 1009.3
20260904030547 59 150 3.0 5.0 0.00 0.07 0.07 68 1009.3
20260904030346 59 163 2.0 4.0 0.00 0.07 0.07 68 1009.3
20260904025840 59 178 2.0 4.0 0.00 0.07 0.07 68 1009.2
20260904025041 59 209 2.0 6.0 0.00 0.07 0.07 68 1009.2
20260904024621 59 179 2.0 6.0 0.00 0.07 0.07 68 1009.2
20260904023536 59 174 2.0 4.0 0.00 0.07 0.07 68 1009.2
20260904023340 59 246 2.0 4.0 0.00 0.07 0.07 68 1009.2
20260904022834 59 256 2.0 4.0 0.00 0.07 0.07 68 1009.2
20260904022018 59 185 3.0 5.0 0.00 0.07 0.07 67 1009.2
20260904021515 59 157 3.0 5.0 0.00 0.07 0.07 67 1009.2
20260904021311 59 154 4.0 7.0 0.00 0.07 0.07 68 1009.0
20260904020505 59 174 4.0 11.0 0.00 0.07 0.07 68 1009.0
20260904020003 60 230 4.0 11.0 0.00 0.07 0.07 68 1009.0
20260904015505 60 216 3.0 6.0 0.00 0.07 0.07 68 1008.9
20260904015001 60 197 3.0 5.0 0.00 0.07 0.07 69 1008.9
20260904014501 60 229 3.0 5.0 0.00 0.07 0.07 69 1008.9
20260904014304 60 238 3.0 5.0 0.00 0.07 0.07 69 1009.0
20260904013501 60 207 3.0 5.0 0.00 0.07 0.07 68 1009.0
20260904013300 60 209 4.0 14.0 0.00 0.07 0.07 68 1009.0
20260904012507 59 188 5.0 14.0 0.00 0.07 0.07 68 1008.9
20260904012000 60 139 6.0 13.0 0.00 0.07 0.07 68 1008.9
20260904011721 60 203 5.0 13.0 0.00 0.07 0.07 67 1008.9
20260904011504 60 203 5.0 13.0 0.00 0.07 0.07 67 1008.9
20260904011003 60 148 4.0 10.0 0.00 0.07 0.07 67 1008.7
20260904010504 60 173 4.0 10.0 0.00 0.07 0.07 67 1008.7
20260904010001 60 181 4.0 10.0 0.00 0.07 0.07 70 1008.7
20260904005449 59 214 6.0 12.0 0.00 0.07 0.07 70 1008.9
20260904004938 59 170 7.0 12.0 0.00 0.07 0.07 70 1008.9
20260904004434 59 159 6.0 13.0 0.00 0.07 0.07 71 1008.9
20260904003933 60 147 6.0 13.0 0.00 0.07 0.07 71 1009.2
20260904003820 60 163 7.0 15.0 0.00 0.07 0.07 70 1009.2
20260904002430 61 238 7.0 14.0 0.00 0.07 0.07 68 1009.1
20260904001929 61 174 5.0 14.0 0.00 0.07 0.07 68 1009.1
20260904001429 61 178 5.0 12.0 0.00 0.07 0.07 69 1009.1
20260904000929 60 150 5.0 12.0 0.00 0.07 0.07 70 1009.1
20260904000432 61 148 5.0 11.0 0.00 0.07 0.07 69 1009.1
20260904000022 61 199 5.0 10.0 0.00 0.07 0.07 70 1009.1
20260903234945 60 173 4.0 8.0 0.00 0.07 0.07 70 1009.2
20260903234435 60 208 5.0 11.0 0.00 0.07 0.07 69 1009.2
20260903233938 61 204 6.0 11.0 0.00 0.07 0.07 68 1009.2
20260903233752 61 173 6.0 11.0 0.00 0.07 0.07 68 1009.2
20260903232934 61 236 6.0 11.0 0.00 0.07 0.07 68 1009.2
20260903232433 60 205 8.0 15.0 0.00 0.07 0.07 69 1009.2
20260903231940 60 169 9.0 15.0 0.00 0.07 0.07 68 1009.2
20260903231523 61 258 7.0 15.0 0.00 0.07 0.07 68 1009.2
20260903230717 61 171 7.0 16.0 0.00 0.07 0.07 69 1009.2
20260903225913 61 269 7.0 16.0 0.00 0.07 0.07 69 1009.2
20260903225410 61 239 7.0 15.0 0.00 0.07 0.07 69 1009.1
20260903224924 61 201 8.0 15.0 0.00 0.07 0.07 68 1009.1
20260903224428 61 188 9.0 15.0 0.00 0.07 0.07 67 1009.1
20260903223910 61 221 9.0 15.0 0.00 0.07 0.07 66 1009.2
20260903223416 61 232 8.0 15.0 0.00 0.07 0.07 65 1009.2
20260903223210 61 194 9.0 18.0 0.00 0.07 0.07 65 1009.2
20260903222412 61 236 9.0 18.0 0.00 0.07 0.07 65 1009.2